Location: Mountain View
(37.3861°N, 122.0839°W)
Time: 03:52:19
(UTC-07:00)

OTV 4 - Visible Passes

Search period start: 30 March 2017 00:00
Search period end: 09 April 2017 00:00
Orbit: 321 x 336 km, 38.0° (Epoch: 29 March)

Date Brightness Start Highest point End Pass type
(mag) Time Alt. Az. Time Alt. Az. Time Alt. Az.
30 Mar 2.5 05:04:10 25° E 05:04:10 25° E 05:05:31 10° E visible
31 Mar 0.6 05:21:04 64° E 05:21:04 64° E 05:23:28 10° E visible
01 Apr 0.2 05:37:58 46° WNW 05:38:37 75° N 05:41:24 10° E visible
02 Apr 0.2 05:54:54 21° W 05:56:34 83° N 05:59:19 10° E visible
03 Apr 3.4 04:40:48 15° E 04:40:48 15° E 04:41:24 10° E visible
03 Apr 0.3 06:11:52 11° W 06:14:28 64° SSW 06:17:11 10° ESE visible
04 Apr 2.2 04:57:51 28° E 04:57:51 28° E 04:59:20 10° E visible
05 Apr 0.8 05:15:01 48° SE 05:15:01 48° SE 05:17:12 10° ESE visible
06 Apr 1.1 05:32:19 32° SSW 05:32:19 32° SSW 05:34:48 10° SE visible
07 Apr 2.1 05:49:47 15° SSW 05:49:58 15° SSW 05:51:44 10° SSE visible
